Location: Newark
(41.6500°N, 71.4833°W)
Time: 16:43:57
(UTC+00:00)

Explorer 11/Cluster Stage 4 - All Passes

Search period start: 21 January 2020 00:00
Search period end: 31 January 2020 00:00
Orbit: 467 x 1259 km, 28.8° (Epoch: 21 January)

Date Brightness Start Highest point End Pass type
(mag) Time Alt. Az. Time Alt. Az. Time Alt. Az.
21 Jan - 01:08:31 10° SW 01:09:22 10° SSW 01:10:11 10° SSW visible
21 Jan - 19:30:11 10° SSW 19:34:52 17° SSE 19:39:11 10° SE daylight
21 Jan - 21:17:25 10° SW 21:23:04 25° S 21:27:56 10° SE daylight
21 Jan - 23:06:19 10° WSW 23:11:03 22° SSW 23:15:07 10° SE visible
22 Jan - 19:18:38 10° SSW 19:23:56 20° SSE 19:28:48 10° ESE daylight
22 Jan - 21:06:12 10° SW 21:12:11 26° S 21:17:21 10° ESE daylight
22 Jan - 22:55:16 10° WSW 23:00:12 22° SSW 23:04:27 10° SE visible
23 Jan - 17:24:14 10° SSE 17:24:50 10° SSE 17:25:26 10° SSE daylight
23 Jan - 19:07:11 10° SSW 19:12:58 22° SSE 19:18:18 10° ESE daylight
23 Jan - 20:55:01 10° SW 21:01:17 28° S 21:06:44 10° ESE daylight
23 Jan - 22:44:15 10° WSW 22:49:20 22° SSW 22:53:44 10° SSE visible
24 Jan - 17:10:57 10° S 17:13:49 12° SSE 17:16:38 10° SE daylight
24 Jan - 18:55:49 10° SW 19:02:00 24° SSE 19:07:44 10° ESE daylight
24 Jan - 20:43:51 10° WSW 20:50:21 29° S 20:56:04 10° SE daylight
24 Jan - 22:33:14 10° WSW 22:38:26 22° SSW 22:42:58 10° SSE visible
25 Jan - 16:58:56 10° S 17:02:48 14° SSE 17:06:37 10° SE daylight
25 Jan - 18:44:33 10° SW 18:51:00 26° SSE 18:57:05 10° ESE daylight
25 Jan - 20:32:44 10° WSW 20:39:25 30° S 20:45:20 10° SE daylight
25 Jan - 22:22:15 10° WSW 22:27:31 21° SSW 22:32:09 10° SSE visible
26 Jan - 16:47:14 10° S 16:51:45 16° SSE 16:56:17 10° ESE daylight
26 Jan - 18:33:20 10° SW 18:40:01 28° S 18:46:21 10° ESE daylight
26 Jan - 20:21:39 10° WSW 20:28:27 30° S 20:34:35 10° SE daylight
26 Jan - 22:11:18 10° WSW 22:16:34 21° SSW 22:21:16 10° SSE visible
27 Jan - 16:35:45 10° SSW 16:40:43 18° SSE 16:45:45 10° ESE daylight
27 Jan - 18:22:11 10° SW 18:29:00 29° S 18:35:35 10° ESE daylight
27 Jan - 20:10:35 10° WSW 20:17:28 31° S 20:23:45 10° SE daylight
27 Jan - 22:00:23 10° WSW 22:05:36 20° SSW 22:10:18 10° SSE daylight
28 Jan - 16:24:23 10° SSW 16:29:40 19° SSE 16:35:06 10° ESE daylight
28 Jan - 18:11:05 10° SW 18:17:59 30° S 18:24:45 10° ESE daylight
28 Jan - 19:59:34 10° WSW 20:06:28 30° S 20:12:53 10° SE daylight
28 Jan - 21:49:31 10° WSW 21:54:36 19° SSW 21:59:17 10° SSE daylight
29 Jan - 16:13:08 10° SSW 16:18:38 21° SSE 16:24:22 10° ESE daylight
29 Jan - 18:00:03 10° SW 18:06:57 31° S 18:13:53 10° ESE daylight
29 Jan - 19:48:35 10° WSW 19:55:28 30° S 20:01:58 10° SE daylight
29 Jan - 21:38:42 10° WSW 21:43:36 18° SSW 21:48:09 10° SSE daylight
30 Jan - 16:01:59 10° SSW 16:07:36 22° SSE 16:13:33 10° ESE daylight
30 Jan - 17:49:03 10° SW 17:55:56 32° S 18:02:57 10° ESE daylight
30 Jan - 19:37:39 10° WSW 19:44:27 29° S 19:50:59 10° SE daylight
30 Jan - 21:27:59 10° WSW 21:32:34 16° SSW 21:36:55 10° S daylight
